Time,TemperatureF,DewpointF,PressureIn,WindDirection,WindDirectionDegrees,WindSpeedMPH,WindSpeedGustMPH,Humidity,HourlyPrecipIn,Conditions,Clouds,dailyrainin,SoftwareType,DateUTC
2013-03-11 00:03:00,44.0,40.0,-100.00,East,95,4.0,11.0,86,-99.99,,,-99.99,,2013-03-11 04:03:00,
2013-03-11 00:12:00,44.0,41.0,-100.00,East,100,5.0,12.0,87,-99.99,,,-99.99,,2013-03-11 04:12:00,
2013-03-11 00:22:00,44.0,41.0,-100.00,East,100,5.0,12.0,87,-99.99,,,-99.99,,2013-03-11 04:22:00,
2013-03-11 00:33:00,44.0,41.0,-100.00,East,90,6.0,11.0,90,-99.99,,,-99.99,,2013-03-11 04:33:00,
2013-03-11 00:42:00,44.0,42.0,-100.00,SE,135,4.0,11.0,91,-99.99,,,-99.99,,2013-03-11 04:42:00,
2013-03-11 00:52:00,44.0,42.0,-100.00,SE,135,4.0,11.0,91,-99.99,,,-99.99,,2013-03-11 04:52:00,
2013-03-11 01:03:00,44.0,41.0,-100.00,ESE,110,3.0,7.0,91,-99.99,,,-99.99,,2013-03-11 05:03:00,
2013-03-11 01:12:00,44.0,42.0,-100.00,SSE,160,2.0,9.0,92,-99.99,,,-99.99,,2013-03-11 05:12:00,
2013-03-11 01:22:00,44.0,42.0,-100.00,SSE,160,2.0,9.0,92,-99.99,,,-99.99,,2013-03-11 05:22:00,
2013-03-11 01:32:00,44.0,41.0,-100.00,East,95,5.0,11.0,92,-99.99,,,-99.99,,2013-03-11 05:32:00,
2013-03-11 01:43:00,44.0,42.0,-100.00,ENE,65,3.0,10.0,93,-99.99,,,-99.99,,2013-03-11 05:43:00,
2013-03-11 01:52:00,44.0,42.0,-100.00,ENE,65,3.0,10.0,93,-99.99,,,-99.99,,2013-03-11 05:52:00,
2013-03-11 02:02:00,44.0,42.0,-100.00,East,95,4.0,8.0,93,-99.99,,,-99.99,,2013-03-11 06:02:00,
2013-03-11 02:12:00,44.0,42.0,-100.00,ESE,110,4.0,10.0,93,-99.99,,,-99.99,,2013-03-11 06:12:00,
2013-03-11 02:22:00,44.0,42.0,-100.00,ESE,110,4.0,10.0,93,-99.99,,,-99.99,,2013-03-11 06:22:00,
2013-03-11 02:32:00,44.0,42.0,-100.00,ESE,115,3.0,9.0,93,-99.99,,,-99.99,,2013-03-11 06:32:00,
2013-03-11 02:42:00,44.0,42.0,-100.00,East,95,4.0,10.0,94,-99.99,,,-99.99,,2013-03-11 06:42:00,
2013-03-11 02:52:00,44.0,42.0,-100.00,East,95,4.0,10.0,94,-99.99,,,-99.99,,2013-03-11 06:52:00,
2013-03-11 03:03:00,44.0,42.0,-100.00,SE,145,4.0,12.0,94,-99.99,,,-99.99,,2013-03-11 07:03:00,
2013-03-11 03:12:00,44.0,42.0,-100.00,SE,130,4.0,9.0,94,-99.99,,,-99.99,,2013-03-11 07:12:00,
2013-03-11 03:22:00,44.0,42.0,-100.00,SE,130,4.0,9.0,94,-99.99,,,-99.99,,2013-03-11 07:22:00,
2013-03-11 03:32:00,43.0,42.0,-100.00,ESE,110,3.0,9.0,94,-99.99,,,-99.99,,2013-03-11 07:32:00,
2013-03-11 03:42:00,43.0,42.0,-100.00,ENE,70,2.0,8.0,94,-99.99,,,-99.99,,2013-03-11 07:42:00,
2013-03-11 03:52:00,43.0,42.0,-100.00,ENE,70,2.0,8.0,94,-99.99,,,-99.99,,2013-03-11 07:52:00,
2013-03-11 04:02:00,43.0,42.0,-100.00,East,100,4.0,9.0,94,-99.99,,,-99.99,,2013-03-11 08:02:00,
2013-03-11 04:12:00,43.0,42.0,-100.00,ESE,120,2.0,9.0,94,-99.99,,,-99.99,,2013-03-11 08:12:00,
2013-03-11 04:22:00,43.0,42.0,-100.00,ESE,120,2.0,9.0,94,-99.99,,,-99.99,,2013-03-11 08:22:00,
2013-03-11 04:33:00,43.0,42.0,-100.00,ESE,120,3.0,7.0,94,-99.99,,,-99.99,,2013-03-11 08:33:00,
2013-03-11 04:42:00,43.0,41.0,-100.00,NE,55,2.0,6.0,94,-99.99,,,-99.99,,2013-03-11 08:42:00,
2013-03-11 04:52:00,43.0,41.0,-100.00,NE,55,2.0,6.0,94,-99.99,,,-99.99,,2013-03-11 08:52:00,
2013-03-11 05:02:00,43.0,42.0,-100.00,SE,125,1.0,6.0,95,-99.99,,,-99.99,,2013-03-11 09:02:00,
2013-03-11 05:12:00,43.0,42.0,-100.00,SE,125,2.0,6.0,95,-99.99,,,-99.99,,2013-03-11 09:12:00,
2013-03-11 05:23:00,43.0,42.0,-100.00,SE,125,2.0,6.0,95,-99.99,,,-99.99,,2013-03-11 09:23:00,
2013-03-11 05:32:00,43.0,42.0,-100.00,SE,130,2.0,7.0,95,-99.99,,,-99.99,,2013-03-11 09:32:00,
2013-03-11 05:42:00,43.0,42.0,-100.00,SE,130,0.0,4.0,95,-99.99,,,-99.99,,2013-03-11 09:42:00,
2013-03-11 05:52:00,43.0,42.0,-100.00,SE,130,0.0,4.0,95,-99.99,,,-99.99,,2013-03-11 09:52:00,
2013-03-11 06:02:00,43.0,41.0,-100.00,East,85,2.0,4.0,95,-99.99,,,-99.99,,2013-03-11 10:02:00,
2013-03-11 06:12:00,43.0,42.0,-100.00,East,85,2.0,6.0,95,-99.99,,,-99.99,,2013-03-11 10:12:00,
2013-03-11 06:22:00,43.0,42.0,-100.00,East,85,2.0,6.0,95,-99.99,,,-99.99,,2013-03-11 10:22:00,
2013-03-11 06:32:00,43.0,42.0,-100.00,East,100,2.0,5.0,95,-99.99,,,-99.99,,2013-03-11 10:32:00,
2013-03-11 06:42:00,43.0,42.0,-100.00,SE,125,2.0,4.0,95,-99.99,,,-99.99,,2013-03-11 10:42:00,
2013-03-11 06:52:00,43.0,42.0,-100.00,SE,125,2.0,4.0,95,-99.99,,,-99.99,,2013-03-11 10:52:00,
2013-03-11 07:02:00,43.0,42.0,-100.00,East,95,2.0,6.0,95,-99.99,,,-99.99,,2013-03-11 11:02:00,
2013-03-11 07:12:00,43.0,42.0,-100.00,ESE,110,2.0,5.0,95,-99.99,,,-99.99,,2013-03-11 11:12:00,
2013-03-11 07:22:00,43.0,42.0,-100.00,ESE,110,2.0,5.0,95,-99.99,,,-99.99,,2013-03-11 11:22:00,
2013-03-11 07:33:00,43.0,42.0,-100.00,SE,140,3.0,7.0,95,-99.99,,,-99.99,,2013-03-11 11:33:00,
2013-03-11 07:42:00,44.0,42.0,-100.00,ESE,120,3.0,6.0,95,-99.99,,,-99.99,,2013-03-11 11:42:00,
2013-03-11 07:52:00,44.0,42.0,-100.00,ESE,120,3.0,6.0,95,-99.99,,,-99.99,,2013-03-11 11:52:00,
2013-03-11 08:02:00,44.0,42.0,-100.00,ESE,105,2.0,6.0,95,-99.99,,,-99.99,,2013-03-11 12:02:00,
2013-03-11 08:12:00,44.0,42.0,-100.00,East,85,0.0,4.0,95,-99.99,,,-99.99,,2013-03-11 12:12:00,
2013-03-11 08:22:00,44.0,42.0,-100.00,East,85,0.0,4.0,95,-99.99,,,-99.99,,2013-03-11 12:22:00,
2013-03-11 08:33:00,44.0,42.0,-100.00,East,95,2.0,5.0,95,-99.99,,,-99.99,,2013-03-11 12:33:00,
2013-03-11 08:43:00,44.0,43.0,-100.00,East,95,2.0,7.0,95,-99.99,,,-99.99,,2013-03-11 12:43:00,
2013-03-11 08:52:00,44.0,43.0,-100.00,East,95,2.0,7.0,95,-99.99,,,-99.99,,2013-03-11 12:52:00,
2013-03-11 09:03:00,44.0,43.0,-100.00,ESE,115,5.0,9.0,94,-99.99,,,-99.99,,2013-03-11 13:03:00,
2013-03-11 09:12:00,45.0,43.0,-100.00,SSE,155,3.0,9.0,93,-99.99,,,-99.99,,2013-03-11 13:12:00,
2013-03-11 09:22:00,45.0,43.0,-100.00,SSE,155,3.0,9.0,93,-99.99,,,-99.99,,2013-03-11 13:22:00,
2013-03-11 09:32:00,45.0,43.0,-100.00,SE,125,3.0,8.0,92,-99.99,,,-99.99,,2013-03-11 13:32:00,
2013-03-11 09:42:00,46.0,43.0,-100.00,ESE,110,4.0,9.0,90,-99.99,,,-99.99,,2013-03-11 13:42:00,
2013-03-11 09:52:00,46.0,43.0,-100.00,ESE,110,4.0,9.0,90,-99.99,,,-99.99,,2013-03-11 13:52:00,
2013-03-11 10:02:00,47.0,43.0,-100.00,SE,130,1.0,10.0,86,-99.99,,,-99.99,,2013-03-11 14:02:00,
2013-03-11 10:12:00,48.0,43.0,-100.00,East,100,2.0,7.0,83,-99.99,,,-99.99,,2013-03-11 14:12:00,
2013-03-11 10:22:00,48.0,43.0,-100.00,East,100,2.0,7.0,83,-99.99,,,-99.99,,2013-03-11 14:22:00,
2013-03-11 10:33:00,48.0,42.0,-100.00,SE,140,2.0,6.0,80,-99.99,,,-99.99,,2013-03-11 14:33:00,
2013-03-11 10:42:00,49.0,42.0,-100.00,East,90,1.0,7.0,76,-99.99,,,-99.99,,2013-03-11 14:42:00,
2013-03-11 10:52:00,49.0,42.0,-100.00,East,90,1.0,7.0,76,-99.99,,,-99.99,,2013-03-11 14:52:00,
2013-03-11 11:03:00,50.0,42.0,-100.00,ENE,75,2.0,7.0,74,-99.99,,,-99.99,,2013-03-11 15:03:00,
2013-03-11 11:12:00,50.0,41.0,-100.00,SSE,150,2.0,6.0,70,-99.99,,,-99.99,,2013-03-11 15:12:00,
2013-03-11 11:22:00,50.0,41.0,-100.00,SSE,150,2.0,6.0,70,-99.99,,,-99.99,,2013-03-11 15:22:00,
2013-03-11 11:32:00,51.0,39.0,-100.00,SE,140,3.0,7.0,65,-99.99,,,-99.99,,2013-03-11 15:32:00,
2013-03-11 11:42:00,53.0,40.0,-100.00,North,10,1.0,9.0,60,-99.99,,,-99.99,,2013-03-11 15:42:00,
2013-03-11 11:52:00,53.0,40.0,-100.00,North,10,1.0,9.0,60,-99.99,,,-99.99,,2013-03-11 15:52:00,
2013-03-11 12:03:00,55.0,40.0,-100.00,NNE,25,2.0,7.0,58,-99.99,,,-99.99,,2013-03-11 16:03:00,
2013-03-11 12:12:00,55.0,39.0,-100.00,SSE,150,6.0,9.0,55,-99.99,,,-99.99,,2013-03-11 16:12:00,
2013-03-11 12:22:00,55.0,39.0,-100.00,SSE,150,6.0,9.0,55,-99.99,,,-99.99,,2013-03-11 16:22:00,
2013-03-11 12:32:00,56.0,39.0,-100.00,South,170,4.0,7.0,54,-99.99,,,-99.99,,2013-03-11 16:32:00,
2013-03-11 12:43:00,56.0,40.0,-100.00,SE,125,2.0,7.0,55,-99.99,,,-99.99,,2013-03-11 16:43:00,
2013-03-11 12:52:00,56.0,40.0,-100.00,SE,125,2.0,7.0,55,-99.99,,,-99.99,,2013-03-11 16:52:00,
2013-03-11 13:02:00,57.0,41.0,-100.00,NE,50,3.0,7.0,55,-99.99,,,-99.99,,2013-03-11 17:02:00,
2013-03-11 13:15:00,58.0,41.0,-100.00,East,80,4.0,9.0,53,-99.99,,,-99.99,,2013-03-11 17:15:00,
2013-03-11 13:26:00,58.0,41.0,-100.00,East,80,4.0,9.0,53,-99.99,,,-99.99,,2013-03-11 17:26:00,
2013-03-11 13:37:00,57.0,41.0,-100.00,ENE,75,3.0,11.0,55,-99.99,,,-99.99,,2013-03-11 17:37:00,
2013-03-11 13:42:00,57.0,42.0,-100.00,NE,35,6.0,12.0,56,-99.99,,,-99.99,,2013-03-11 17:42:00,
2013-03-11 13:52:00,57.0,42.0,-100.00,NE,35,6.0,12.0,56,-99.99,,,-99.99,,2013-03-11 17:52:00,
2013-03-11 14:02:00,57.0,42.0,-100.00,ENE,75,5.0,13.0,57,-99.99,,,-99.99,,2013-03-11 18:02:00,
2013-03-11 14:12:00,58.0,43.0,-100.00,NE,35,4.0,10.0,58,-99.99,,,-99.99,,2013-03-11 18:12:00,
2013-03-11 14:23:00,58.0,43.0,-100.00,NE,35,4.0,10.0,58,-99.99,,,-99.99,,2013-03-11 18:23:00,
2013-03-11 14:33:00,58.0,43.0,-100.00,ENE,65,2.0,10.0,57,-99.99,,,-99.99,,2013-03-11 18:33:00,
2013-03-11 14:42:00,58.0,42.0,-100.00,East,100,3.0,10.0,56,-99.99,,,-99.99,,2013-03-11 18:42:00,
2013-03-11 14:52:00,58.0,42.0,-100.00,East,100,3.0,10.0,56,-99.99,,,-99.99,,2013-03-11 18:52:00,
2013-03-11 15:02:00,57.0,42.0,-100.00,East,80,4.0,10.0,58,-99.99,,,-99.99,,2013-03-11 19:02:00,
2013-03-11 15:12:00,58.0,43.0,-100.00,NE,50,4.0,12.0,58,-99.99,,,-99.99,,2013-03-11 19:12:00,
2013-03-11 15:23:00,58.0,43.0,-100.00,NE,50,4.0,12.0,58,-99.99,,,-99.99,,2013-03-11 19:23:00,
2013-03-11 15:33:00,58.0,43.0,-100.00,East,100,4.0,11.0,58,-99.99,,,-99.99,,2013-03-11 19:33:00,
2013-03-11 15:43:00,58.0,43.0,-100.00,NE,45,7.0,13.0,58,-99.99,,,-99.99,,2013-03-11 19:43:00,
2013-03-11 15:52:00,58.0,43.0,-100.00,NE,45,7.0,13.0,58,-99.99,,,-99.99,,2013-03-11 19:52:00,
2013-03-11 16:02:00,58.0,43.0,-100.00,East,80,7.0,13.0,59,-99.99,,,-99.99,,2013-03-11 20:02:00,
2013-03-11 16:12:00,58.0,44.0,-100.00,East,90,4.0,14.0,59,-99.99,,,-99.99,,2013-03-11 20:12:00,
2013-03-11 16:22:00,58.0,44.0,-100.00,East,90,4.0,14.0,59,-99.99,,,-99.99,,2013-03-11 20:22:00,
2013-03-11 16:32:00,58.0,44.0,-100.00,East,90,6.0,14.0,60,-99.99,,,-99.99,,2013-03-11 20:32:00,
2013-03-11 16:43:00,58.0,45.0,-100.00,East,95,4.0,14.0,62,-99.99,,,-99.99,,2013-03-11 20:43:00,
2013-03-11 16:52:00,58.0,45.0,-100.00,East,95,4.0,14.0,62,-99.99,,,-99.99,,2013-03-11 20:52:00,
2013-03-11 17:03:00,58.0,46.0,-100.00,East,85,6.0,11.0,64,-99.99,,,-99.99,,2013-03-11 21:03:00,
2013-03-11 17:12:00,58.0,46.0,-100.00,East,95,5.0,13.0,65,-99.99,,,-99.99,,2013-03-11 21:12:00,
2013-03-11 17:22:00,58.0,46.0,-100.00,East,95,5.0,13.0,65,-99.99,,,-99.99,,2013-03-11 21:22:00,
2013-03-11 17:33:00,58.0,46.0,-100.00,East,90,6.0,14.0,65,-99.99,,,-99.99,,2013-03-11 21:33:00,
2013-03-11 17:43:00,57.0,46.0,-100.00,East,80,10.0,16.0,66,-99.99,,,-99.99,,2013-03-11 21:43:00,
2013-03-11 17:52:00,57.0,46.0,-100.00,East,80,10.0,16.0,66,-99.99,,,-99.99,,2013-03-11 21:52:00,
2013-03-11 18:03:00,56.0,46.0,-100.00,East,80,6.0,21.0,67,-99.99,,,-99.99,,2013-03-11 22:03:00,
2013-03-11 18:12:00,56.0,46.0,-100.00,East,100,9.0,19.0,69,-99.99,,,-99.99,,2013-03-11 22:12:00,
2013-03-11 18:22:00,56.0,46.0,-100.00,East,100,9.0,19.0,69,-99.99,,,-99.99,,2013-03-11 22:22:00,
2013-03-11 18:32:00,56.0,46.0,-100.00,ESE,105,7.0,20.0,69,-99.99,,,-99.99,,2013-03-11 22:32:00,
2013-03-11 18:43:00,56.0,46.0,-100.00,SE,130,9.0,19.0,70,-99.99,,,-99.99,,2013-03-11 22:43:00,
2013-03-11 18:53:00,56.0,46.0,-100.00,SE,130,9.0,19.0,70,-99.99,,,-99.99,,2013-03-11 22:53:00,
2013-03-11 19:03:00,55.0,46.0,-100.00,East,100,7.0,22.0,71,-99.99,,,-99.99,,2013-03-11 23:03:00,
2013-03-11 19:12:00,55.0,46.0,-100.00,East,100,7.0,17.0,71,-99.99,,,-99.99,,2013-03-11 23:12:00,
2013-03-11 19:22:00,55.0,46.0,-100.00,East,100,7.0,17.0,71,-99.99,,,-99.99,,2013-03-11 23:22:00,
2013-03-11 19:32:00,55.0,46.0,-100.00,East,85,8.0,14.0,72,-99.99,,,-99.99,,2013-03-11 23:32:00,
2013-03-11 19:43:00,55.0,46.0,-100.00,ESE,115,8.0,21.0,73,-99.99,,,-99.99,,2013-03-11 23:43:00,
2013-03-11 19:52:00,55.0,46.0,-100.00,ESE,115,8.0,21.0,73,-99.99,,,-99.99,,2013-03-11 23:52:00,
2013-03-11 20:02:00,55.0,47.0,-100.00,ESE,105,7.0,20.0,74,-99.99,,,-99.99,,2013-03-12 00:02:00,
2013-03-11 20:12:00,55.0,47.0,-100.00,ESE,120,8.0,21.0,74,-99.99,,,-99.99,,2013-03-12 00:12:00,
2013-03-11 20:23:00,55.0,47.0,-100.00,ESE,120,8.0,21.0,74,-99.99,,,-99.99,,2013-03-12 00:23:00,
2013-03-11 20:33:00,55.0,47.0,-100.00,East,90,9.0,19.0,75,-99.99,,,-99.99,,2013-03-12 00:33:00,
2013-03-11 20:42:00,55.0,47.0,-100.00,ENE,60,6.0,24.0,76,-99.99,,,-99.99,,2013-03-12 00:42:00,
2013-03-11 20:53:00,55.0,47.0,-100.00,ENE,60,6.0,24.0,76,-99.99,,,-99.99,,2013-03-12 00:53:00,
2013-03-11 21:02:00,54.0,47.0,-100.00,ESE,115,9.0,19.0,76,-99.99,,,-99.99,,2013-03-12 01:02:00,
2013-03-11 21:12:00,54.0,47.0,-100.00,East,90,9.0,22.0,76,-99.99,,,-99.99,,2013-03-12 01:12:00,
2013-03-11 21:22:00,54.0,47.0,-100.00,East,90,9.0,22.0,76,-99.99,,,-99.99,,2013-03-12 01:22:00,
2013-03-11 21:33:00,54.0,47.0,-100.00,East,95,7.0,18.0,76,-99.99,,,-99.99,,2013-03-12 01:33:00,
2013-03-11 21:42:00,54.0,46.0,-100.00,SE,125,7.0,19.0,74,-99.99,,,-99.99,,2013-03-12 01:42:00,
2013-03-11 21:52:00,54.0,46.0,-100.00,SE,125,7.0,19.0,74,-99.99,,,-99.99,,2013-03-12 01:52:00,
2013-03-11 22:02:00,54.0,46.0,-100.00,ESE,120,6.0,29.0,74,-99.99,,,-99.99,,2013-03-12 02:02:00,
2013-03-11 22:12:00,54.0,46.0,-100.00,East,95,11.0,22.0,74,-99.99,,,-99.99,,2013-03-12 02:12:00,
2013-03-11 22:22:00,54.0,46.0,-100.00,East,95,11.0,22.0,74,-99.99,,,-99.99,,2013-03-12 02:22:00,
2013-03-11 22:32:00,54.0,45.0,-100.00,ESE,105,8.0,24.0,74,-99.99,,,-99.99,,2013-03-12 02:32:00,
2013-03-11 22:42:00,54.0,45.0,-100.00,East,95,8.0,17.0,74,-99.99,,,-99.99,,2013-03-12 02:42:00,
2013-03-11 22:52:00,54.0,45.0,-100.00,East,95,8.0,17.0,74,-99.99,,,-99.99,,2013-03-12 02:52:00,
2013-03-11 23:02:00,53.0,45.0,-100.00,East,95,6.0,14.0,73,-99.99,,,-99.99,,2013-03-12 03:02:00,
2013-03-11 23:12:00,53.0,45.0,-100.00,ENE,60,5.0,13.0,73,-99.99,,,-99.99,,2013-03-12 03:12:00,
2013-03-11 23:22:00,53.0,45.0,-100.00,ENE,60,5.0,13.0,73,-99.99,,,-99.99,,2013-03-12 03:22:00,
2013-03-11 23:32:00,53.0,45.0,-100.00,East,85,6.0,12.0,74,-99.99,,,-99.99,,2013-03-12 03:32:00,
2013-03-11 23:42:00,53.0,45.0,-100.00,East,95,6.0,14.0,74,-99.99,,,-99.99,,2013-03-12 03:42:00,
2013-03-11 23:52:00,53.0,45.0,-100.00,East,95,6.0,14.0,74,-99.99,,,-99.99,,2013-03-12 03:52:00,